[Date Prev][Date Next][Thread Prev][Thread Next] - [Date Index][Thread Index][Author Index]
2 Line ISS & Suitesat 2-11 Updated
- Subject: [sarex] 2 Line ISS & Suitesat 2-11 Updated
- From: "Dave Larsen PhD" <doc@xxxxxxxxxxx>
- Date: Sat, 11 Feb 2006 02:08:00 -0800
ISS
1 25544U 98067A 06042.36443444 .00010273 00000-0 72731-4 0 3276
2 25544 051.6441 114.5755 0008537 263.5622 188.2654 15.74648852413338
SUITSAT DEB
1 28934U 05035D 06042.08953998 .00160903 00000-0 96289-3 0 34
2 28934 051.6409 115.9255 0008136 257.6876 102.2405 15.76784866 440
----
Via the sarex mailing list at AMSAT.ORG courtesy of AMSAT-NA.
To unsubscribe, send "unsubscribe sarex" to Majordomo@amsat.org
AMSAT Home